Are comets born in great swarms? The puzzling abundance of comets in short solar orbits has led a pair of astronomers to suggest that they are fragments of larger bodies that crumbled as they entered the inner solar system. Short-period comets take less than 200 years to circle the sun and are thought...
|
|
|
|
|
|
Comets Disguised as Asteroids
(Preview)
|
Astronomy News
|
1
|
1917
|
|
|
An asteroid cruising through the solar system six years ago seemed just another silent ship sailing in the eternal darkness, until it flared up with the startling brightness of a comet's halo. Just like that, the space rock known as NEO 2001 OG108 was re-classified as C/2001 OG108 in 2002, from aster...
|
|
|
|
|
|
Comet C/2008 S3 (Boattini)
(Preview)
|
Astronomy News
|
4
|
1799
|
|
|
Comet C/2008 S3 (Boattini) was discovered on he 29th September, 2008, by A. Boattini (Mt Lemmon Survey). The preliminary orbital elements of the comet indicate a perihelion passage on the 4th April, 2011, at a distance of 3.1 AU from the Sun. [url=http://cfa-www.harvard.edu/mpec/K08/K08S96....
|
|
|
|
|
|
Comet 29P/Schwassmann-Wachmann
(
1 2
)
(Preview)
|
Astronomy News
|
15
|
7218
|
|
|
Outburst of comet 29P/Schwassmann-Wachmann. The comet 29P/Schwassmann-Wachmann has brightened up again reaching magnitude 11.0 V. on September 21, 2008. The brightening was observed by Juan Antonio. [url=http://...
|
|
|
|
|
|
Comet 51P/Harrington
(Preview)
|
Solar System
|
4
|
2683
|
|
|
Comet 51P/Harrington Epoch 2008 June 23.0 TT = JDT 2454640.5 T 2008 June 18.39909 TT MPC q 1.6877644 (2000.0) P Q n 0.13830973 Peri. 269.16931 +0.98796971 +0.12276778 a 3.7031180 Node 83.77510 -0.07462469 +0.91108638 e 0.5442315 Incl. 5.42830 -0.13545116 +0.39350944 P 7.13 MPEC 2008-U53
|
|
|
|
|
|
Destructive comets
(Preview)
|
Meteorite News
|
0
|
1856
|
|
|
Destructive comets, like the one many people say slammed into the Tunguska region of Siberia last century, are much rarer than we think, new research finds.
Australian scientist Dr Paul Francis of the Research School of Astronomy and Astrophysics at Mount Stromlo, estimates small comets tha...
|
|
|
|
|
|
Comet 169P/NEAT
(
1 2
)
(Preview)
|
Solar System
|
11
|
5398
|
|
|
169/NEAT, also known as NEAT 22, is a periodic comet in our solar system. Source Orbital Elements 169P/NEAT Epoch 2009 June 18.0 TT = JDT 2455000.5 T 2009 Nov. 30.3058 TT MPC q 0.607674 (2000.0) P Q n 0.2343311 Peri. 217.9626 +0.8267053 -0.56...
|
|
|
|
|
|
Comet 88P/Howell
(Preview)
|
Solar System
|
7
|
2822
|
|
|
Orbital Elements 88P/Howell Epoch 2009 Oct. 16.0 TT = JDT 2455120.5 T 2009 Oct. 12.4693 TT MPC q 1.363486 (2000.0) P Q n 0.1794476 Peri. 235.9623 +0.3841862 +0.9210419 a 3.112989 Node 56.7567 -0.8198930 +0.3721759 e 0.562001 Incl. 4.3817 -0.4244720 +0.1147476 P 5.49 Ephemeris Date TT R. A. (2000)...
|
|
|
|
|
|
Comet 10P/Tempel 2
(
1 2
)
(Preview)
|
Solar System
|
16
|
7497
|
|
|
When professional astronomers study a comet carefully enough and they are patient enough to do so every chance they get, the results can be astonishing. This type of result is just what Lowell Observatory astronomers and colleagues have with research on Comet 10P/Tempel 2. Lowell astronomer Davi...
|
|
|
|
|
|
Comet C/2009 T1 (McNaught)
(Preview)
|
Solar System
|
8
|
2308
|
|
|
Orbital elements: C/2009 T1 (McNaught) T 2010 Mar. 25.069 TT MPC q 5.56975 (2000.0) P Q Peri. 300.574 +0.280940 +0.418664 Node 59.778 +0.732213 +0.488212 e 1.0 Incl. 88.081 -0.620432 +0.765748 From 17 observations 2009 Oct. 9-11. [url=http://www.cfa.harvard.edu/mpec/K09/K09T36.html]MPE...
|
|
|
|
|
|
Comet 224P/LINEAR-NEAT
(Preview)
|
Solar System
|
5
|
2652
|
|
|
Orbital Elements 224P/LINEAR-NEAT Epoch 2010 Feb. 13.0 TT = JDT 2455240.5 T 2010 Jan. 31.8363 TT MPC q 1.989593 (2000.0) P Q n 0.1565872 Peri. 16.0938 +0.5550859 -0.8179734 a 3.409038 Node 40.5285 +0.7352415 +0.3976133 e 0.416377 Incl. 13.4361 +0.3889724 +0.4157202 P 6.29 From 88 observations 2...
|
|
|
|
|
|
Comet P/2008 T1 (Boattini)
(Preview)
|
Solar System
|
6
|
2279
|
|
|
Comet P/2008 T1 (Boattini) was discovered by Andrea Boattini (Mt Lemmon Survey) on October 1, 2008. The comet was identified on archive Spacewatch images from the 2 and 21 September, 2008. The preliminary orbital elements of the comet indicate a perihelion passage on February 25, 2008 at a dista...
|
|
|
|
|
|
Comet 2009 F3 (LINEAR)
(Preview)
|
Solar System
|
2
|
2450
|
|
|
Comet P/2001 MD7 = 2009 F3 (LINEAR) Comet P/2001 MD7 was recovered by E. Guido, G. Sostero, and P. Camilleri (Mayhill RAS observatory) on the 17th March, 2009. N. Blythe (Lincoln Laboratory Experimental Test System) had first announced the discovery of the comet on July 11, 2001. The comet had also b...
|
|
|
|
|
|
Comet 118P/Shoemaker-Levy 4
(Preview)
|
Solar System
|
3
|
2696
|
|
|
Ephemeris Date TT R. A. (2000) Decl. Delta r Elong. Phase mag 2009 10 21 05 57.30 +10 54.4 1.409 2.067 117.5 25.3 15.9 2009 10 26 06 01.23 +10 30.1 1.356 2.056 121.4 24.4 15.8 2009 10 31 06 04.46 +10 05.9 1.306 2.047 125.3 23.3 15.7 2009 11 05 06 06.96 +09 42.3 1.258 2.037 129.4 22.1 15.6 2009 11 10 06 08.68 +09 20...
|
|
|
|
|
|
Comet C/2006 W3 (Christensen)
(Preview)
|
Solar System
|
7
|
2474
|
|
|
Ephemeris Date TT R. A. (2000) Decl. Delta r Elong. Phase mag 2009 04 09 22 48.52 +33 58.5 3.915 3.242 42.1 12.0 13.1 2009 04 14 22 49.91 +34 02.0 3.875 3.230 44.0 12.5 13.0 2009 04 19 22 51.00 +34 07.3 3.829 3.218 46.3 13.0 13.0 2009 04 24 22 51.78 +34 14.4 3.777 3.207 48.9 13.7 12.9 2009 04 29 22 52.19 +34 22.8 3....
|
|
|
|
|
|
Comet C/2009 U5 (Grauer)
(
1 2
)
(Preview)
|
Solar System
|
10
|
6786
|
|
|
Orbital elements: C/2009 U5 (Grauer) T 2010 Aug. 23.034 TT MPC q 0.57126 (2000.0) P Q Peri. 139.324 -0.060019 +0.797257 Node 118.302 -0.996818 -0.079494 e 1.0 Incl. 43.016 +0.052458 -0.598382 From 27 observations 2009 Oct. 23-25. [url=http://www.cfa.harvard.edu/mpec/K09/K09UA0.html]MPE...
|
|
|
|
|
|
Comet 107P (4015) Wilson-Harrington
(
1 2
)
(Preview)
|
Solar System
|
15
|
7330
|
|
|
Comet 107P (4015) Wilson-Harrington Comet Wilson-Harrington is a periodic comet (formally designated 107P/Wilson-Harrington). Little known about it distinguishes it from other comets, but for the fact that it is also designated an asteroid, 4015 Wilson-Harrington (which, incidentally, i...
|
|
|
|
|
|
Long-Period Comets
(Preview)
|
Solar System
|
5
|
3736
|
|
|
Title: Reassessing the Source of Long-Period Comets Authors: Nathan A. Kaib, Thomas Quinn We present numerical simulations to model the production of observable long-period comets (LPCs) from the Oort Cloud, a vast reservoir of icy bodies surrounding the Sun. We show that inner Oort Cloud objec...
|
|
|
|
|
|
Comet C/2009 U6 (LINEAR)
(Preview)
|
Solar System
|
9
|
2738
|
|
|
Orbital elements: C/2009 U6 (LINEAR) T 2009 Aug. 26.433 TT MPC q 1.61891 (2000.0) P Q Peri. 319.286 +0.252191 -0.941312 Node 115.014 +0.939612 +0.182774 e 1.0 Incl. 14.334 +0.231364 +0.283769 From 15 observations 2009 Oct. 27-29. [url=http://www.cfa.harvard.edu/mpec/K09/K09UC6.html]MPE...
|
|
|
|
|
|
Comet C/2008 H1 (LINEAR)
(Preview)
|
Solar System
|
0
|
1577
|
|
|
An magnitude 17 object, having at first the appearance of an asteroid, was discovered on April 18, 2008 by the LINEAR monitoring telescope. The cometary nature was revealed by confirmation observations made by E Reina (Masquefa Observatory), E Guido and G Sostero (Mayhill Observatory, ), J...
|
|
|
|
|
|
Comet C/1490 Y1
(Preview)
|
Solar System
|
0
|
1729
|
|
|
Title: Orbital Elements of Comet C/1490 Y1 and the Quadrantid shower Authors: Ki-Won Lee, Hong-Jin Yang, Myeong-Gu Park The Quadrantid shower, one of the most intense showers, has been observed at the beginning of January each year. However, the origin of the meteors is still unknown. It was Haseg...
|
|
|
|
|
|
Comet C/2009 Y2 (Kowalski)
(Preview)
|
Solar System
|
9
|
3922
|
|
|
Orbital elements: C/2009 Y2 (Kowalski) T 2010 Apr. 2.849 TT MPC q 2.29149 (2000.0) P Q Peri. 177.247 +0.201737 -0.840292 Node 260.726 +0.888598 +0.373108 e 1.0 Incl. 30.655 +0.411942 -0.393319 From 45 observations 2009 Dec. 20-21. [url=http://www.cfa.harvard.edu/mpec/K09/K09Y40.html]MP...
|
|
|
|
|
|
Comet 81P/Wild
(
1 2
)
(Preview)
|
Solar System
|
19
|
8375
|
|
|
The 10th magnitude comet 81/P Wild is 1 degree from the planet Saturn in the constellation Virgo. Expand (11kb, 913 x 634) Date TT R. A. (2000) Decl. Delta r Elong. Phase mag mag 2009 12 30 12 06.04 +00...
|
|
|
|
|
|
Sungrazing comet
(
1 2
)
(Preview)
|
Astronomy News
|
16
|
5624
|
|
|
A sungrazing comet discovered by comet hunter A. Watson, is making a close approach to the Sun. Expand (99kb, 560 x 560) Credit SOHO
|
|
|
|
|
|
Great January Comet
(Preview)
|
Solar System
|
0
|
1664
|
|
|
100 years ago the Great January Comet was accidentally discovered just before dawn on January 12th, 1910, by South African diamond miners. The long period comet passed perihelion on 17 January, 1910. The Great January Comet of 1910, formally designated C/1910 A1 and often referred to as the Daylig...
|
|
|
|
|
|
Comet 2008 R1 (Garradd)
(
1 2
)
(Preview)
|
Solar System
|
10
|
7308
|
|
|
Gordon J. Garradd (at Siding Spring Survey) has announced the discovery of a new comet on September 2, 2008. The new come increases Gordon Garradd tally of discoveries to 12 comets. The preliminary orbital elements of the comet indicate a perihelion passage on November 8, 2008, at a distance of 1....
|
|
|
|
|
|
Comet 205P/Giacobini A
(Preview)
|
Solar System
|
5
|
5770
|
|
|
MPEC 2008-S47
|
|
|
|
|
|
Comet 19P/Borrelly
(Preview)
|
Solar System
|
5
|
2533
|
|
|
Comet 19P/Borrelly is at perihelion, (1.355 AU), Magnitude 8.2, on 22nd July 2008. See more Comet Borrelly (formally designated 19P/Borrelly) is a periodic comet, which...
|
|
|
|
|
|
Comet 82P/Gehrels
(Preview)
|
Solar System
|
7
|
4236
|
|
|
